When you browse on this site, cookies collect data to enhance your experience and personalize the content and advertising you see.
Visit our Privacy Policy to learn more. By continuing to use the site, you agree to this use of cookies and data.
  • Em Portugal
  • Lista de países
  • Para 7 dias
  • Temperatura da água
  • Mapas de satélite
  • Mapa do tempo
  • Widgets de tempo
  • user-avatar
    Iniciar Sessão

    Previsão horária em Kalat

    Hoje, 21 Fevereiro, Quinta-feira

    Tempo Temperatura Precipitação Vento Pressão Humidade
    00:00 -14°C° 0.2 mm 2 m/s 467 mmHg 86%
    01:00 -14°C° 0.2 mm 2 m/s 467 mmHg 87%
    02:00 -14°C° 0.2 mm 2 m/s 467 mmHg 88%
    03:00 -15°C° 0.4 mm 2 m/s 467 mmHg 88%
    04:00 -15°C° 0.4 mm 2 m/s 467 mmHg 89%
    05:00 -14°C° 0 mm 2 m/s 467 mmHg 90%
    06:00 -15°C° 0.5 mm 2 m/s 467 mmHg 91%
    07:00 -16°C° 0.5 mm 3 m/s 467 mmHg 91%
    08:00 -16°C° 0.5 mm 3 m/s 466 mmHg 92%
    09:00 -16°C° 0.5 mm 3 m/s 467 mmHg 91%
    10:00 -16°C° 0.5 mm 3 m/s 467 mmHg 89%
    11:00 -16°C° 0.5 mm 3 m/s 468 mmHg 88%
    12:00 -15°C° 0.4 mm 3 m/s 468 mmHg 87%
    13:00 -15°C° 0.4 mm 3 m/s 468 mmHg 86%
    14:00 -15°C° 0.4 mm 3 m/s 468 mmHg 85%
    15:00 -15°C° 0.3 mm 3 m/s 468 mmHg 86%
    16:00 -15°C° 0.3 mm 3 m/s 468 mmHg 87%
    17:00 -15°C° 0.3 mm 2 m/s 468 mmHg 88%
    18:00 -16°C° 0.1 mm 2 m/s 467 mmHg 87%
    19:00 -15°C° 0.1 mm 1 m/s 467 mmHg 86%
    20:00 -16°C° 0.1 mm 1 m/s 467 mmHg 85%
    21:00 -16°C° 0 mm 1 m/s 466 mmHg 84%
    22:00 -17°C° 0 mm 1 m/s 466 mmHg 83%
    23:00 -18°C° 0 mm 1 m/s 465 mmHg 82%

    Amanhã, 22 Fevereiro, Sexta-feira

    Tempo Temperatura Precipitação Vento Pressão Humidade
    00:00 -21°C° 0 mm 2 m/s 465 mmHg 82%
    01:00 -21°C° 0 mm 2 m/s 464 mmHg 82%
    02:00 -23°C° 0 mm 2 m/s 463 mmHg 82%
    03:00 -23°C° 0 mm 2 m/s 463 mmHg 81%
    04:00 -24°C° 0 mm 2 m/s 463 mmHg 80%
    05:00 -24°C° 0 mm 2 m/s 463 mmHg 79%
    06:00 -23°C° 0 mm 2 m/s 464 mmHg 75%
    07:00 -21°C° 0 mm 2 m/s 464 mmHg 72%
    08:00 -21°C° 0 mm 2 m/s 465 mmHg 68%
    09:00 -18°C° 0 mm 2 m/s 467 mmHg 65%
    10:00 -14°C° 0 mm 2 m/s 469 mmHg 61%
    11:00 -10°C° 0 mm 2 m/s 471 mmHg 58%
    12:00 -12°C° 0 mm 3 m/s 471 mmHg 58%
    13:00 -10°C° 0 mm 3 m/s 471 mmHg 57%
    14:00 -9°C° 0 mm 3 m/s 471 mmHg 57%
    15:00 -9°C° 0 mm 2 m/s 470 mmHg 61%
    16:00 -10°C° 0 mm 2 m/s 469 mmHg 66%
    17:00 -12°C° 0 mm 2 m/s 469 mmHg 70%
    18:00 -15°C° 0 mm 2 m/s 467 mmHg 73%
    19:00 -18°C° 0 mm 3 m/s 466 mmHg 77%
    20:00 -22°C° 0 mm 3 m/s 465 mmHg 80%
    21:00 -22°C° 0 mm 3 m/s 465 mmHg 80%
    22:00 -23°C° 0 mm 3 m/s 465 mmHg 80%
    23:00 -23°C° 0 mm 3 m/s 465 mmHg 80%

    Depois de amanhã, 23 Fevereiro, Sábado

    Tempo Temperatura Precipitação Vento Pressão Humidade
    00:00 -24°C° 0 mm 3 m/s 465 mmHg 75%
    01:00 -24°C° 0 mm 3 m/s 464 mmHg 71%
    02:00 -24°C° 0 mm 3 m/s 464 mmHg 66%
    03:00 -24°C° 0 mm 3 m/s 464 mmHg 62%
    04:00 -24°C° 0 mm 3 m/s 464 mmHg 57%
    05:00 -24°C° 0 mm 3 m/s 464 mmHg 53%
    06:00 -21°C° 0 mm 2 m/s 465 mmHg 51%
    07:00 -20°C° 0 mm 2 m/s 465 mmHg 48%
    08:00 -19°C° 0 mm 2 m/s 466 mmHg 46%
    09:00 -17°C° 0 mm 2 m/s 467 mmHg 44%
    10:00 -14°C° 0 mm 2 m/s 469 mmHg 42%
    11:00 -10°C° 0 mm 2 m/s 470 mmHg 40%
    12:00 -10°C° 0 mm 2 m/s 470 mmHg 42%
    13:00 -9°C° 0 mm 1 m/s 470 mmHg 44%
    14:00 -8°C° 0 mm 1 m/s 469 mmHg 45%
    15:00 -9°C° 0.1 mm 1 m/s 469 mmHg 56%
    16:00 -9°C° 0.1 mm 1 m/s 469 mmHg 67%
    17:00 -10°C° 0.1 mm 1 m/s 468 mmHg 78%
    18:00 -11°C° 0.1 mm 1 m/s 467 mmHg 80%
    19:00 -13°C° 0.1 mm 1 m/s 467 mmHg 82%
    20:00 -15°C° 0.1 mm 1 m/s 466 mmHg 84%
    21:00 -16°C° 0 mm 1 m/s 465 mmHg 85%
    22:00 -17°C° 0 mm 1 m/s 464 mmHg 85%
    23:00 -21°C° 0 mm 2 m/s 463 mmHg 85%

    24 Fevereiro, Domingo

    Tempo Temperatura Precipitação Vento Pressão Humidade
    00:00 -21°C° 0 mm 2 m/s 463 mmHg 83%
    01:00 -21°C° 0 mm 2 m/s 462 mmHg 80%
    02:00 -23°C° 0 mm 2 m/s 462 mmHg 78%
    03:00 -21°C° 0 mm 2 m/s 462 mmHg 77%
    04:00 -21°C° 0 mm 2 m/s 462 mmHg 75%
    05:00 -19°C° 0 mm 1 m/s 462 mmHg 74%
    06:00 -18°C° 0 mm 1 m/s 463 mmHg 74%
    07:00 -17°C° 0 mm 1 m/s 464 mmHg 74%
    08:00 -16°C° 0 mm 1 m/s 465 mmHg 74%
    09:00 -15°C° 0 mm 1 m/s 465 mmHg 69%
    10:00 -13°C° 0 mm 1 m/s 466 mmHg 64%
    11:00 -11°C° 0 mm 1 m/s 467 mmHg 59%
    12:00 -11°C° 0.1 mm 1 m/s 467 mmHg 63%
    13:00 -12°C° 0.1 mm 2 m/s 467 mmHg 67%
    14:00 -12°C° 0.1 mm 2 m/s 467 mmHg 71%
    15:00 -12°C° 0.3 mm 2 m/s 467 mmHg 77%
    16:00 -13°C° 0.3 mm 2 m/s 467 mmHg 83%
    17:00 -13°C° 0.3 mm 2 m/s 467 mmHg 89%
    18:00 -14°C° 0.2 mm 2 m/s 466 mmHg 90%
    19:00 -15°C° 0.2 mm 2 m/s 466 mmHg 91%
    20:00 -14°C° 0.2 mm 1 m/s 466 mmHg 92%
    21:00 -15°C° 0.1 mm 1 m/s 466 mmHg 91%
    22:00 -15°C° 0.1 mm 1 m/s 465 mmHg 91%
    23:00 -16°C° 0.1 mm 1 m/s 465 mmHg 90%

    25 Fevereiro, Segunda-feira

    Tempo Temperatura Precipitação Vento Pressão Humidade
    00:00 -16°C° 0.1 mm 1 m/s 464 mmHg 90%
    01:00 -17°C° 0.1 mm 1 m/s 464 mmHg 90%
    02:00 -17°C° 0.1 mm 0 m/s 464 mmHg 90%
    03:00 -18°C° 0.1 mm 1 m/s 463 mmHg 90%
    04:00 -18°C° 0.1 mm 1 m/s 463 mmHg 90%
    05:00 -18°C° 0.1 mm 1 m/s 463 mmHg 90%
    06:00 -18°C° 0 mm 1 m/s 463 mmHg 90%
    07:00 -18°C° 0 mm 1 m/s 463 mmHg 89%
    08:00 -19°C° 0 mm 1 m/s 463 mmHg 89%
    09:00 -17°C° 0 mm 1 m/s 464 mmHg 83%
    10:00 -17°C° 0 mm 2 m/s 465 mmHg 78%
    11:00 -15°C° 0 mm 2 m/s 466 mmHg 73%
    12:00 -15°C° 0.1 mm 2 m/s 467 mmHg 73%
    13:00 -15°C° 0.1 mm 3 m/s 467 mmHg 73%
    14:00 -15°C° 0.1 mm 3 m/s 467 mmHg 73%
    15:00 -15°C° 0.1 mm 3 m/s 466 mmHg 77%
    16:00 -16°C° 0.1 mm 3 m/s 466 mmHg 81%
    17:00 -16°C° 0.1 mm 3 m/s 466 mmHg 85%
    18:00 -18°C° 0.1 mm 3 m/s 465 mmHg 88%
    19:00 -19°C° 0.1 mm 2 m/s 464 mmHg 90%
    20:00 -21°C° 0.1 mm 2 m/s 463 mmHg 92%
    21:00 -21°C° 0 mm 1 m/s 461 mmHg 92%
    22:00 -22°C° 0 mm 1 m/s 460 mmHg 93%
    23:00 -24°C° 0 mm 1 m/s 459 mmHg 93%

    26 Fevereiro, Terça-feira

    Tempo Temperatura Precipitação Vento Pressão Humidade
    00:00 -24°C° 0 mm 1 m/s 459 mmHg 91%
    01:00 -24°C° 0 mm 1 m/s 458 mmHg 89%
    02:00 -24°C° 0 mm 1 m/s 458 mmHg 88%
    03:00 -24°C° 0 mm 1 m/s 458 mmHg 86%
    04:00 -25°C° 0 mm 1 m/s 458 mmHg 85%
    05:00 -25°C° 0 mm 1 m/s 458 mmHg 83%
    06:00 -24°C° 0 mm 1 m/s 459 mmHg 80%
    07:00 -23°C° 0 mm 1 m/s 459 mmHg 76%
    08:00 -22°C° 0 mm 1 m/s 460 mmHg 72%
    09:00 -18°C° 0 mm 1 m/s 462 mmHg 66%
    10:00 -17°C° 0 mm 2 m/s 464 mmHg 60%
    11:00 -14°C° 0 mm 2 m/s 466 mmHg 54%
    12:00 -14°C° 0 mm 2 m/s 466 mmHg 52%
    13:00 -11°C° 0 mm 1 m/s 466 mmHg 50%
    14:00 -11°C° 0 mm 1 m/s 466 mmHg 48%
    15:00 -11°C° 0 mm 1 m/s 465 mmHg 57%
    16:00 -12°C° 0 mm 1 m/s 465 mmHg 66%
    17:00 -12°C° 0 mm 1 m/s 464 mmHg 75%
    18:00 -15°C° 0 mm 1 m/s 463 mmHg 79%
    19:00 -17°C° 0 mm 1 m/s 461 mmHg 84%
    20:00 -20°C° 0 mm 1 m/s 459 mmHg 88%
    21:00 -20°C° 0 mm 1 m/s 459 mmHg 87%
    22:00 -21°C° 0 mm 1 m/s 459 mmHg 85%
    23:00 -24°C° 0 mm 2 m/s 458 mmHg 84%
    Mostrar mais